Location: Gettysburg
(39.8310°N, 77.2310°W)
Time: 13:49:22
(UTC-04:00)

BlueWalker 3 - Visible Passes

Search period start: 05 June 2023 00:00
Search period end: 15 June 2023 00:00
Orbit: 494 x 513 km, 53.2° (Epoch: 05 June)

Date Brightness Start Highest point End Pass type
(mag) Time Alt. Az. Time Alt. Az. Time Alt. Az.
05 Jun 3.8 01:04:35 10° NNW 01:08:00 29° NNE 01:08:12 29° NE visible
05 Jun 4.9 21:26:10 10° NW 21:28:08 13° NNW 21:30:06 10° NNE visible
05 Jun 4.9 23:06:26 10° NNW 23:08:03 12° N 23:09:41 10° NE visible
06 Jun 3.7 00:44:11 10° NNW 00:47:37 29° NNE 00:47:40 29° NNE visible
06 Jun 4.9 21:05:48 10° NW 21:07:44 13° NNW 21:09:40 10° NNE visible
06 Jun 4.9 22:46:00 10° NNW 22:47:40 12° N 22:49:19 10° NE visible
07 Jun 3.6 00:23:45 10° NNW 00:27:12 30° NNE 00:27:19 30° NNE visible
07 Jun 4.8 22:25:34 10° NNW 22:27:15 12° N 22:28:55 10° NE visible
08 Jun 3.5 00:03:18 10° NNW 00:06:47 30° NNE 00:07:03 30° NE visible
08 Jun 4.8 22:05:08 10° NNW 22:06:50 12° N 22:08:31 10° NE visible
08 Jun 3.4 23:42:51 10° NW 23:46:21 31° NNE 23:46:53 30° NE visible
09 Jun 4.7 01:21:18 10° WNW 01:21:32 11° WNW 01:21:32 11° WNW visible
09 Jun 4.7 21:44:41 10° NNW 21:46:24 12° N 21:48:07 10° NE visible
09 Jun 3.4 23:22:24 10° NW 23:25:53 32° NNE 23:26:46 28° ENE visible
10 Jun 4.6 01:00:52 10° WNW 01:01:25 13° WNW 01:01:25 13° WNW visible
10 Jun 4.7 21:24:13 10° NNW 21:25:57 13° N 21:27:42 10° NE visible
10 Jun 3.4 23:01:56 10° NW 23:05:27 32° NNE 23:06:41 26° ENE visible
11 Jun 4.4 00:40:25 10° WNW 00:41:21 16° WNW 00:41:21 16° WNW visible
11 Jun 4.6 21:03:45 10° NNW 21:05:30 13° N 21:07:16 10° NE visible
11 Jun 3.3 22:41:27 10° NW 22:44:59 33° NNE 22:46:40 23° ENE visible
12 Jun 4.1 00:19:57 10° WNW 00:21:20 19° WNW 00:21:20 19° WNW visible
12 Jun 3.2 22:20:58 10° NW 22:24:30 34° NNE 22:26:41 19° E visible
12 Jun 3.8 23:59:29 10° WNW 00:01:21 23° W 00:01:21 23° W visible
13 Jun 3.2 22:00:28 10° NW 22:04:01 34° NNE 22:06:44 15° E visible
13 Jun 3.5 23:39:01 10° WNW 23:41:24 27° W 23:41:24 27° W visible
14 Jun 3.1 21:39:57 10° NW 21:43:31 35° NNE 21:46:49 12° E visible
14 Jun 3.2 23:18:32 10° WNW 23:21:30 30° WSW 23:21:30 30° WSW visible
